Location: SE Lincoln, NE
(40.7805°N, 96.6275°W)
Time: 03:35:27
(UTC-05:00)

Cosmos 44 - Pass Details

Date: 15 May 2021
Orbit: 571 x 791 km, 65.1° (Epoch: 23 June)

Event Time Altitude Azimuth Distance (km) Brightness Sun altitude
Rises 22:23:21 0° 333° (NNW) 3,291 8.2 -17.0°
Reaches altitude 10° 22:25:59 10° 341° (NNW) 2,350 7.0 -17.4°
Maximum altitude 22:31:02 38° 50° (NE) 1,154 4.4 -18.0°
Enters shadow 22:33:21 26° 99° (E) 1,475 4.5 -18.3°
